Weather in Tullamore

Ireland     53°16′15″N   7°29′34″W
temp.,
°C
wind,
m/s
gust,
m/s
humid.,
%
clouds,
%
prec.,
mm/h
press.,
hPa
HPBL,
m
24 january, mon
mon2400:00+7s3879100 0.0 1029433
03:00+6sse2787100 0.0 1029219
06:00+6sse2685100 0.0 1030161
09:00+5sse37941 0.0 1031162
12:00+8sse36770 0.0 1031432
15:00+8s24790 0.0 1031594
18:00+4sse22940 0.0 103229
21:00+3s22940 0.0 103326
25 january, tue
tue2500:00+2sse22940 0.0 103416
03:00+2sse22940 0.0 103416
06:00+1s11940 0.0 103410
09:00+1ssw11940 0.0 103510
12:00+6w13780 0.0 1035311
15:00+7w2379100 0.0 1034448
18:00+4w2294100 0.0 103622
21:00+2sw22960 0.0 103621
26 january, wed
wed2600:00+2sw22975 0.0 103638
03:00+2sw22975 0.0 103624
06:00+2sw22965 0.0 103526
09:00+2ssw229697 0.0 103441
12:00+7sw36815 0.0 1034323
15:00+7sw41078100 0.0 1032678
18:00+5sw41290100 0.0 1031470
21:00+6wsw51588100 0.0 1030557
27 january, thu
thu2700:00+7sw51588100 0.0 1029723
03:00+8wsw51495100 0.2 1028820
06:00+8nw41091100 0.4 1029768
09:00+7wnw398219 0.0 1032427
12:00+8nw477713 0.0 1035975
15:00+9wnw37745 0.0 1035926
18:00+5w3895100 0.0 1037151
21:00+4wsw2498100 0.0 103885
28 january, fri
fri2800:00+3sw2397100 0.0 103948
03:00+3sw2397100 0.0 103947
06:00+2ssw229590 0.0 103829
09:00+3ssw238990 0.0 103963
12:00+7ssw21078100 0.0 1038358
15:00+9wsw4138397 0.0 1036632
18:00+9wsw51490100 0.0 1036669
21:00+10wsw5148799 0.0 1036699